User: anonymous   Login
Location: Dunedin
(45.8670°S, 170.5000°E)
Time: 01:24:55
(UTC+12:00)
Language:

MetOp-B - Orbit

View from above orbital plane
View from above orbital plane
View from above satellite
View from above satellite

Ground track
Ground track

The orbit data is extracted from the following two-line orbital elements,

1 38771U 12049A   19142.57443501 -.00000006 +00000-0 +17362-4 0  9998
2 38771 098.7052 202.2787 0001958 070.8372 035.7277 14.21488650346358
Epoch (UTC): 22 May 2019 13:47:11
Eccentricity: 0.0001958
inclination: 98.7052°
perigee height: 819 km
apogee height: 822 km
right ascension of ascending node: 202.2787°
argument of perigee: 70.8372°
revolutions per day: 14.21488650
mean anomaly at epoch: 35.7277°
orbit number at epoch: 34635

The dashed part of the orbit path shows where the satellite is in the earth's shadow,  

DLR